Regional Weather Roundup
Issued by NWS Green Bay, WI

Home | Current Version | Previous Version | Graphics & Text | Print | Product List | Glossary Off
Versions: 1 2 3 4 5 6 7 8 9 10 11 12 13 14 15 16 17 18 19 20 21 22 23 24 25 26 27 28 29 30 31 32 33 34 35 36 37 38 39 40 41 42 43 44 45 46 47 48 49 50

600
ASUS43 KGRB 232000
RWRGRB

NORTH-CENTRAL AND NORTHEAST WISCONSIN REGIONAL WEATHER ROUNDUP
NATIONAL WEATHER SERVICE GREEN BAY WI
200 PM CST THU NOV 23 2017

WIZ005-009-010>012-018-019-232100-
NORTH CENTRAL WISCONSIN

CITY           SKY/WX    TMP DP  RH WIND       PRES   REMARKS
IRONWOOD       SUNNY     37  22  54 W5        29.81F
MANITOWISH WTR NOT AVBL
ARBOR VITAE    NOT AVBL
EAGLE RIVER    SUNNY     38  22  52 W9        29.80S
LAND O LAKES   NOT AVBL
RHINELANDER    SUNNY     40  23  50 W7        29.82F
PHILLIPS       SUNNY     39  24  54 SW6       29.81S
ANTIGO         NOT AVBL
TOMAHAWK       NOT AVBL
MERRILL        SUNNY     40  22  48 W6        29.84F
$$

WIZ013-073-232100-
NORTHEAST WISCONSIN

CITY           SKY/WX    TMP DP  RH WIND       PRES   REMARKS
IRON MOUNTAIN  SUNNY     40  20  44 W7        29.80F
MARINETTE      SUNNY     40  20  44 W7        29.86
$$

WIZ017-030-035>037-045-232100-
CENTRAL WISCONSIN

CITY           SKY/WX    TMP DP  RH WIND       PRES   REMARKS
MEDFORD        NOT AVBL
WAUSAU         SUNNY     40  21  46 W8        29.83F
MOSINEE        MOSUNNY   39  19  45 W7        29.86F
MARSHFIELD     SUNNY     40  19  43 W8        29.84F
WISC RAPIDS    SUNNY     42  21  43 VRB3      29.87F
STEVENS POINT  NOT AVBL
WAUPACA        NOT AVBL
SHAWANO        SUNNY     44  19  37 W6        29.86F
CLINTONVILLE   NOT AVBL
WAUTOMA        SUNNY     43  20  39 W5        29.87F
$$

WIZ038-039-048-051-232100-
FOX VALLEY

CITY           SKY/WX    TMP DP  RH WIND       PRES   REMARKS
NWS GREEN BAY  SUNNY     42  22  44 W9        29.87F
APPLETON       SUNNY     41  16  36 W8        29.86F
OSHKOSH        SUNNY     42  22  44 W6        29.88S
FOND DU LAC    SUNNY     42  19  39 W5        29.88F
$$

WIZ022-050-052-232100-
EAST CENTRAL WISCONSIN

CITY           SKY/WX    TMP DP  RH WIND       PRES   REMARKS
EPHRAIM        NOT AVBL
WASHINGTON ISL NOT AVBL
STURGEON BAY   SUNNY     39  20  46 SW10      29.87S
MANITOWOC      SUNNY     41  21  44 W8        29.89S
SHEBOYGAN      SUNNY     42  22  44 W9        29.88S
$$

LMZ563-521-522-541>543-232100-
LAKESHORE

STATION/POSITION TIME  TEMP    WIND        PRES    VSBY  WAVE
                       AIR SEA DIR/SP/G                  HT/PER
                 (UTC) (F)     (DEG/KT/KT) (MB)    (MI)  (FT/S)
SHEBOYGAN LKSHOR 1900   40     240/  5/  7 1012.6F
KEWAUNEE LKSHORE 1930   40     240/  4/  9 1010.9R
NORTHPORT PIER   1940   39     240/  3/  9 1011.2S
N MID LAKE BUOY  1850   36 47  240/ 14/ 16 1012.2F         3/ 5
SISTER BAY LKSHO 1905   44     260/ 10/ 11   N/A
MENOMINEE LKSHOR 1930   39     240/  7/ 12 1011.0F
$$




USA.gov is the U.S. government's official web portal to all federal, state and local government web resources and services.